Change the Weather History Date:

Friday, October 4, 2013

  Actual Average (KMTJ) Record (KMTJ)
Temperature  
Mean Temperature 44 °F 55 °F  
Max Temperature 52 °F 70 °F 80 °F (2001)
Min Temperature 35 °F 40 °F 32 °F (2013)
Degree Days  
Heating Degree Days 22 10  
Month to date heating degree days 38  
Since 1 July heating degree days 165  
Cooling Degree Days 0 0  
Month to date cooling degree days 0  
Year to date cooling degree days 643  
Moisture  
Dew Point 31 °F    
Average Humidity 67    
Maximum Humidity 93    
Minimum Humidity 33    
Precipitation  
Precipitation 0.00 in 0.05 in 0.40 in (1998)
Month to date precipitation 0.24  
Year to date precipitation 8.89  
Sea Level Pressure  
Sea Level Pressure 30.19 in    
Wind  
Wind Speed 11 mph (West)    
Max Wind Speed 22 mph    
Max Gust Speed 28 mph    
Visibility 10 miles    
Events Rain    
T = Trace of Precipitation, MM = Missing Value Source: NWS Daily Summary

Daily Weather History Graph

Daily Weather History Graph

Search for Another Location

Airport or City:

Trip Planner

Search our weather history database for the weather conditions in past years. The results will help you decide how hot, cold, wet, or windy it might be!

Date:

Astronomy

Oct. 04, 2013 Rise Set
Actual Time 7:11 AM MDT 6:49 PM MDT
Civil Twilight 6:44 AM MDT 7:16 PM MDT
Nautical Twilight 6:13 AM MDT 7:47 PM MDT
Astronomical Twilight 5:42 AM MDT 8:18 PM MDT
Moon 6:49 AM MDT (10/4) 6:34 PM MDT (10/4)
Length of Visible Light 12h 31m
Length of Day
11h 38m
Waning Crescent, 0% of the Moon is Illuminated
Oct 4
Waning Crescent
Oct 4
New
Oct 11
First Quarter
Oct 18
Full
Oct 26
Last Quarter

Hourly Weather History & Observations

Time (MDT) Temp. Windchill Dew Point Humidity Pressure Visibility Wind Dir Wind Speed Gust Speed Precip Events Conditions
12:15 AM 39.2 °F 30.2 °F 35.6 °F 87% 30.00 in 10.0 mi WSW 17.3 mph 23.0 mph N/A Rain Light Rain
12:35 AM 38.7 °F 29.5 °F 35.6 °F 89% 30.02 in 10.0 mi WSW 17.3 mph 23.0 mph N/A   Overcast
12:55 AM 37.9 °F 29.2 °F 35.2 °F 90% 30.03 in 7.0 mi WSW 15.0 mph 25.3 mph N/A Rain Light Rain
1:15 AM 38.5 °F 29.9 °F 34.9 °F 87% 30.03 in 10.0 mi WSW 15.0 mph 20.7 mph N/A   Overcast
1:35 AM 38.5 °F 30.3 °F 34.9 °F 87% 30.04 in 10.0 mi SSW 13.8 mph - N/A   Overcast
1:55 AM 38.5 °F 30.3 °F 34.9 °F 87% 30.05 in 10.0 mi WSW 13.8 mph - N/A Rain Light Rain
2:15 AM 38.3 °F 30.5 °F 35.4 °F 89% 30.05 in 10.0 mi SSW 12.7 mph - N/A   Mostly Cloudy
2:35 AM 37.2 °F 29.1 °F 35.2 °F 93% 30.05 in 10.0 mi SSW 12.7 mph - N/A   Scattered Clouds
2:55 AM 37.4 °F 28.9 °F 35.2 °F 92% 30.05 in 10.0 mi SW 13.8 mph 19.6 mph N/A   Mostly Cloudy
3:15 AM 39.6 °F 32.1 °F 31.5 °F 73% 30.04 in 10.0 mi West 12.7 mph 19.6 mph N/A   Mostly Cloudy
3:35 AM 38.3 °F 30.5 °F 34.3 °F 86% 30.05 in 10.0 mi SW 12.7 mph - N/A   Overcast
3:55 AM 37.6 °F 28.8 °F 34.7 °F 89% 30.05 in 10.0 mi SW 15.0 mph - N/A   Overcast
4:15 AM 38.3 °F 30.9 °F 31.8 °F 77% 30.06 in 10.0 mi West 11.5 mph 17.3 mph N/A   Overcast
4:35 AM 39.2 °F 30.8 °F 31.6 °F 74% 30.06 in 10.0 mi WSW 15.0 mph 19.6 mph N/A   Scattered Clouds
4:55 AM 37.0 °F 29.3 °F 32.7 °F 84% 30.07 in 10.0 mi SW 11.5 mph 16.1 mph N/A   Scattered Clouds
5:15 AM 37.4 °F 33.8 °F 32.2 °F 81% 30.07 in 10.0 mi North 4.6 mph - N/A   Clear
5:35 AM 36.7 °F - 32.9 °F 86% 30.09 in 10.0 mi Calm Calm - N/A   Scattered Clouds
5:55 AM 37.6 °F 35.1 °F 32.7 °F 83% 30.09 in 10.0 mi South 3.5 mph - N/A   Mostly Cloudy
6:15 AM 36.7 °F 32.9 °F 33.1 °F 87% 30.11 in 10.0 mi WSW 4.6 mph - N/A   Overcast
6:35 AM 36.9 °F 29.6 °F 33.1 °F 86% 30.11 in 10.0 mi WSW 10.4 mph 16.1 mph N/A   Overcast
6:55 AM 36.7 °F 31.2 °F 32.9 °F 86% 30.13 in 10.0 mi WSW 6.9 mph - N/A   Overcast
7:15 AM 37.0 °F 32.4 °F 33.4 °F 87% 30.14 in 10.0 mi West 5.8 mph - N/A   Overcast
7:35 AM 36.9 °F 33.1 °F 32.7 °F 85% 30.15 in 10.0 mi West 4.6 mph - N/A   Mostly Cloudy
7:55 AM 37.0 °F 31.6 °F 32.7 °F 84% 30.15 in 10.0 mi WSW 6.9 mph - N/A   Mostly Cloudy
8:15 AM 37.6 °F 32.3 °F 32.7 °F 83% 30.17 in 10.0 mi West 6.9 mph - N/A   Mostly Cloudy
8:35 AM 37.6 °F 35.1 °F 32.9 °F 83% 30.17 in 10.0 mi SW 3.5 mph - N/A   Scattered Clouds
8:55 AM 38.7 °F - 33.1 °F 80% 30.17 in 10.0 mi Calm Calm - N/A   Scattered Clouds
9:15 AM 40.3 °F 38.2 °F 33.4 °F 77% 30.18 in 10.0 mi SW 3.5 mph - N/A   Scattered Clouds
9:35 AM 41.5 °F 39.6 °F 33.4 °F 73% 30.19 in 10.0 mi South 3.5 mph - N/A   Mostly Cloudy
9:55 AM 41.7 °F - 32.5 °F 70% 30.20 in 10.0 mi Calm Calm - N/A   Scattered Clouds
10:15 AM 43.2 °F - 33.6 °F 69% 30.20 in 10.0 mi Calm Calm - N/A   Mostly Cloudy
10:35 AM 43.0 °F 38.8 °F 32.4 °F 66% 30.19 in 10.0 mi SSW 6.9 mph - N/A   Mostly Cloudy
10:55 AM 45.1 °F 43.7 °F 32.2 °F 60% 30.20 in 10.0 mi North 3.5 mph - N/A   Scattered Clouds
11:15 AM 46.0 °F 43.9 °F 30.2 °F 54% 30.20 in 10.0 mi WSW 4.6 mph - N/A   Mostly Cloudy
11:35 AM 47.7 °F - 30.6 °F 52% 30.21 in 10.0 mi SW 6.9 mph - N/A   Mostly Cloudy
11:55 AM 48.7 °F - 30.7 °F 50% 30.20 in 10.0 mi WSW 10.4 mph 16.1 mph N/A   Scattered Clouds
12:15 PM 49.5 °F - 30.4 °F 48% 30.21 in 10.0 mi West 9.2 mph 18.4 mph N/A   Mostly Cloudy
12:35 PM 48.6 °F - 29.3 °F 47% 30.21 in 10.0 mi WSW 10.4 mph 17.3 mph N/A   Mostly Cloudy
12:55 PM 49.6 °F - 29.8 °F 47% 30.21 in 10.0 mi West 16.1 mph 20.7 mph N/A   Mostly Cloudy
1:15 PM 49.3 °F - 29.5 °F 46% 30.21 in 10.0 mi West 17.3 mph 20.7 mph N/A   Mostly Cloudy
1:35 PM 45.7 °F 38.0 °F 31.6 °F 58% 30.22 in 7.0 mi West 19.6 mph 25.3 mph N/A   Mostly Cloudy
1:55 PM 46.4 °F 39.2 °F 30.7 °F 54% 30.21 in 10.0 mi West 18.4 mph 24.2 mph N/A   Mostly Cloudy
2:15 PM 50.7 °F - 29.5 °F 44% 30.20 in 10.0 mi West 20.7 mph 27.6 mph N/A   Mostly Cloudy
2:35 PM 51.4 °F - 32.0 °F 47% 30.21 in 7.0 mi WNW 21.9 mph 26.5 mph N/A   Overcast
2:55 PM 49.8 °F - 31.3 °F 49% 30.21 in 10.0 mi WNW 13.8 mph 18.4 mph N/A   Overcast
3:15 PM 52.3 °F - 28.2 °F 39% 30.22 in 10.0 mi West 16.1 mph 20.7 mph N/A   Overcast
3:35 PM 51.6 °F - 29.5 °F 43% 30.21 in 10.0 mi SSW 11.5 mph 23.0 mph N/A   Mostly Cloudy
3:55 PM 52.0 °F - 28.4 °F 40% 30.21 in 10.0 mi West 15.0 mph 23.0 mph N/A   Overcast
4:15 PM 52.5 °F - 26.1 °F 36% 30.22 in 7.0 mi West 16.1 mph 25.3 mph N/A   Overcast
4:35 PM 51.3 °F - 23.2 °F 33% 30.23 in 10.0 mi WSW 4.6 mph 20.7 mph N/A   Overcast
4:55 PM 50.2 °F - 29.8 °F 46% 30.24 in 10.0 mi West 11.5 mph 17.3 mph N/A   Overcast
5:15 PM 50.0 °F - 29.1 °F 45% 30.25 in 10.0 mi West 13.8 mph 21.9 mph N/A   Overcast
5:35 PM 49.8 °F - 21.7 °F 33% 30.26 in 10.0 mi WNW 8.1 mph 11.5 mph N/A   Overcast
5:55 PM 49.1 °F - 21.9 °F 34% 30.28 in 10.0 mi NW 13.8 mph 20.7 mph N/A   Overcast
6:15 PM 47.7 °F - 26.6 °F 44% 30.28 in 10.0 mi WSW 13.8 mph - N/A   Mostly Cloudy
6:35 PM 43.9 °F 37.9 °F 28.9 °F 56% 30.28 in 10.0 mi WSW 11.5 mph - N/A   Scattered Clouds
6:55 PM 43.3 °F 37.2 °F 28.8 °F 56% 30.27 in 10.0 mi WSW 11.5 mph 17.3 mph N/A   Clear
7:15 PM 43.0 °F 36.8 °F 27.0 °F 53% 30.27 in 10.0 mi WSW 11.5 mph 18.4 mph N/A   Clear
7:35 PM 42.1 °F 36.6 °F 27.5 °F 56% 30.28 in 10.0 mi NE 9.2 mph - N/A   Clear
7:55 PM 39.7 °F - 29.8 °F 68% 30.28 in 10.0 mi Calm Calm - N/A   Clear
8:15 PM 39.4 °F 34.5 °F 30.2 °F 70% 30.30 in 10.0 mi NW 6.9 mph - N/A   Clear
8:35 PM 39.9 °F 35.8 °F 29.7 °F 67% 30.31 in 10.0 mi NW 5.8 mph - N/A   Clear
8:55 PM 38.5 °F 36.1 °F 28.6 °F 68% 30.32 in 10.0 mi ENE 3.5 mph - N/A   Clear
9:15 PM 37.9 °F - 29.1 °F 71% 30.33 in 10.0 mi Calm Calm - N/A   Clear
9:35 PM 36.5 °F 31.8 °F 29.3 °F 75% 30.34 in 10.0 mi NE 5.8 mph - N/A   Clear
9:55 PM 36.7 °F 30.5 °F 29.1 °F 74% 30.34 in 10.0 mi NE 8.1 mph - N/A   Clear
10:15 PM 37.0 °F - 28.9 °F 73% 30.35 in 10.0 mi Calm Calm - N/A   Clear
10:35 PM 36.3 °F - 28.9 °F 75% 30.36 in 10.0 mi Calm Calm - N/A   Mostly Cloudy
10:55 PM 35.6 °F 29.2 °F 28.9 °F 77% 30.36 in 10.0 mi NNE 8.1 mph - N/A   Mostly Cloudy
11:15 PM 36.1 °F 29.9 °F 29.1 °F 76% 30.37 in 10.0 mi North 8.1 mph - N/A   Overcast
11:35 PM 37.4 °F 31.4 °F 28.8 °F 71% 30.37 in 10.0 mi NNE 8.1 mph - N/A   Overcast
11:55 PM 37.9 °F 32.1 °F 28.4 °F 69% 30.37 in 10.0 mi NNE 8.1 mph - N/A   Overcast